Location: Cheyres
(46.8153°N, 6.7877°E)
Time: 03:08:16
(UTC+00:00)

DNEPR-1 R/B - Pass Details

Date: 11 May 2021
Orbit: 587 x 1334 km, 64.6° (Epoch: 18 June)

Event Time Altitude Azimuth Distance (km) Brightness Sun altitude
Exits shadow 22:34:44 48° 215° (SW) 1,090 4.4 -23.9°
Maximum altitude 22:36:24 89° 130° (SE) 809 4.0 -24.0°
Drops below altitude 10° 22:41:24 10° 38° (NE) 2,187 6.8 -24.2°
Sets 22:43:32 0° 38° (NE) 3,030 7.7 -24.2°
